User: anonymous   Login
Location: Strawberry
(45.6646°N, 111.9596°W)
Time: 22:19:16
(UTC+00:00)
Language:

SR - Orbit

View from above orbital plane
View from above orbital plane
View from above satellite
View from above satellite

Ground track
Ground track

The orbit data is extracted from the following two-line orbital elements,

1    46U 60007B   24057.24388668  .00001062  00000-0  22279-3 0  9990
2    46  66.6915 358.5762 0207092 206.6980 152.3352 14.51489124334631
Epoch (UTC): 26 February 2024 05:51:11
Eccentricity: 0.0207092
inclination: 66.6915°
perigee height: 574 km
apogee height: 868 km
right ascension of ascending node: 358.5762°
argument of perigee: 206.6980°
revolutions per day: 14.51489124
mean anomaly at epoch: 152.3352°
orbit number at epoch: 33463

The dashed part of the orbit path shows where the satellite is in the earth's shadow,  

DLR